Wind_Speed
15 13 11 14 16 11 10 10 7 8 7 8 7 8 9 10 11 11 11 13 13 14 16 15 16 15 15 15 13 13 13 12 12 13 13 12 10 10 11 12 13 13 12 10 8 4 7 5 5
17 15 17 18 19 15 14 9 9 9 8 8 8 8 10 10 11 12 11 13 13 14 15 15 16 17 16 16 16 15 16 15 15 13 14 13 12 10 10 11 12 14 12 11 10 7 7 5 5
19 15 17 21 19 14 10 11 9 9 9 9 9 7 8 9 11 11 12 12 12 15 16 17 17 17 17 17 18 18 17 18 18 17 15 16 15 14 11 11 10 10 12 11 10 8 7 6 4
19 16 22 19 18 15 12 13 10 9 9 10 8 7 8 8 10 10 11 12 14 16 17 18 18 18 19 19 20 21 20 21 21 21 19 18 18 18 17 15 13 13 11 12 12 11 9 9 7
18 18 22 19 20 16 16 14 11 10 11 11 10 10 12 8 12 11 13 13 16 18 19 21 21 21 21 22 23 23 23 23 22 22 22 22 21 21 20 20 18 17 16 16 16 14 13 13 12
20 21 22 22 20 18 17 15 12 12 13 15 14 11 14 15 15 15 16 17 20 19 22 24 25 25 24 25 26 25 26 26 25 25 25 24 24 24 24 23 23 21 20 20 19 19 18 17 18
20 20 23 21 20 17 18 16 16 14 14 18 19 17 16 21 20 22 22 22 25 25 25 27 28 28 28 28 29 29 29 28 28 28 28 28 27 27 27 28 27 26 25 24 23 22 22 20 21
22 23 26 23 20 17 18 18 18 18 17 19 22 21 20 23 25 26 27 28 30 30 31 32 31 30 31 31 32 33 33 32 32 32 31 31 31 31 30 31 31 30 28 29 28 27 25 25 25
25 25 23 20 20 19 20 19 19 21 20 22 23 25 25 26 28 30 32 34 34 35 36 35 35 33 32 32 36 35 35 36 36 35 35 34 34 33 33 33 33 33 32 31 31 32 31 31 29
23 25 24 22 23 21 21 22 21 22 23 26 25 27 29 31 32 35 37 38 39 40 40 39 38 36 36 36 36 37 38 39 39 40 39 38 38 37 36 36 36 35 35 35 35 35 35 36 35
24 24 22 22 23 22 24 25 24 24 27 28 30 31 31 36 40 42 43 44 45 44 42 40 41 40 39 39 38 39 39 40 41 42 42 42 41 40 40 39 39 38 38 38 38 38 39 40 40
20 22 22 25 27 28 29 29 27 27 31 33 34 37 39 41 44 45 46 45 45 45 43 43 44 44 42 42 41 41 41 40 40 40 41 41 40 40 39 38 38 38 38 37 38 39 39 41 42
26 27 28 27 28 29 28 30 30 31 34 38 41 43 45 47 47 47 47 47 49 52 51 50 51 50 49 47 47 46 45 44 41 40 39 38 37 36 35 34 33 33 34 35 35 36 37 38 38
27 27 27 27 28 29 31 33 35 37 39 42 44 46 47 48 50 53 55 57 56 56 56 56 56 56 55 54 53 51 49 47 44 41 38 36 35 33 33 34 35 36 37 38 40 40 41 42 43
27 27 28 29 30 32 34 36 39 41 42 43 44 46 49 51 53 55 56 57 58 59 59 59 58 58 58 58 57 54 53 49 45 43 41 38 37 37 36 37 39 41 43 44 46 48 49 49 49
27 29 30 30 32 33 35 35 39 41 42 42 45 48 50 53 56 59 61 63 63 63 64 65 65 64 62 60 58 54 51 49 47 44 42 41 40 39 39 41 44 46 48 49 50 52 52 53 54
26 27 29 30 30 31 33 34 36 41 42 45 47 50 54 58 57 53 50 47 50 51 53 56 57 59 62 64 58 53 49 49 47 44 42 41 40 41 42 44 46 47 48 50 52 54 55 55 56
25 27 28 30 30 31 33 34 36 39 43 48 52 55 48 38 40 43 45 50 56 59 61 62 62 66 64 58 57 54 49 48 46 44 42 41 41 42 42 45 48 50 52 53 53 54 54 54 54
25 26 27 30 31 31 31 35 38 43 47 44 36 35 36 37 39 44 48 56 60 67 72 74 72 66 62 59 56 51 47 46 45 42 40 39 39 41 44 47 48 48 49 50 49 47 47 45 41
27 27 26 25 27 29 34 37 38 37 32 33 33 32 33 38 41 43 49 51 51 53 47 41 40 42 39 46 48 47 45 40 38 36 36 36 40 42 42 44 44 44 40 40 40 40 39 38 38
24 23 23 24 27 32 35 32 29 26 30 32 35 37 38 38 36 38 48 50 51 51 49 35 27 18 25 33 33 34 32 30 30 29 31 36 34 37 39 38 35 32 31 29 28 29 28 29 31
21 23 24 27 30 30 27 22 24 26 24 30 34 39 34 30 29 35 47 42 43 44 45 36 22 16 14 16 20 22 21 22 24 26 27 30 33 33 29 25 26 25 22 22 22 24 25 25 26
24 25 26 28 28 20 20 22 23 15 21 28 38 36 32 28 26 31 39 35 35 34 33 29 21 10 10 17 21 23 22 24 28 28 29 27 24 21 22 22 20 19 16 22 22 21 19 19 19
26 28 26 22 17 16 18 22 10 14 21 25 27 33 34 25 23 27 30 34 31 30 28 24 19 16 12 11 13 14 15 18 20 20 18 18 21 22 21 18 19 20 23 25 22 21 20 19 19
24 21 18 13 15 16 20 14 13 19 21 26 26 26 27 25 22 26 25 26 28 26 23 20 18 13 8 7 6 8 11 10 11 13 15 15 17 18 18 20 21 23 25 26 25 24 22 24 24
13 13 14 15 16 18 18 17 20 22 25 27 26 25 23 25 25 24 25 24 21 21 21 19 15 12 9 8 5 6 9 12 12 13 14 15 17 19 22 24 25 24 24 25 24 24 24 21 21
11 13 15 19 18 13 14 19 22 23 23 24 25 25 25 24 23 24 25 25 23 20 18 17 14 11 10 10 10 12 14 16 17 18 18 19 20 23 27 30 31 28 25 25 23 23 24 26 26
14 16 18 19 18 15 16 19 24 23 23 23 27 29 31 31 28 27 25 26 24 22 20 18 17 15 12 12 13 14 14 15 15 16 16 18 18 21 25 30 31 30 27 26 28 29 29 31 32
18 19 20 19 21 22 20 20 25 27 26 23 29 33 33 33 32 30 28 27 24 21 19 18 17 16 15 14 16 16 15 16 17 18 18 19 20 22 22 23 24 28 30 30 31 33 34 35 35
19 19 20 20 20 23 27 23 30 34 35 29 31 32 34 35 35 33 31 29 28 24 22 19 18 16 13 13 13 12 12 14 15 17 19 20 21 22 24 25 25 27 30 33 35 37 37 37 38
Wind_Direction
241 246 250 263 253 245 228 227 243 256 264 277 292 303 300 303 301 297 302 298 299 296 295 295 294 293 296 298 301 300 302 307 315 324 326 332 328 327 333 331 322 310 312 312 319 274 316 292 311
229 239 259 250 251 252 241 223 229 251 265 276 287 295 299 305 301 307 310 308 308 300 299 296 291 290 290 292 294 293 294 298 303 311 315 310 315 322 316 321 326 322 315 307 300 289 305 298 285
230 230 250 248 252 242 248 244 236 245 260 270 280 293 299 300 306 312 315 312 312 305 303 300 297 294 290 289 289 287 288 289 294 297 296 300 301 305 312 308 305 308 302 302 297 289 291 290 291
226 241 244 246 249 244 238 240 239 248 257 265 276 279 280 294 296 303 305 310 309 307 308 306 300 295 292 289 288 287 286 286 288 291 288 284 291 293 296 298 301 289 284 279 282 282 279 281 283
221 232 240 236 241 240 242 244 243 249 258 267 265 279 282 282 284 299 301 304 304 305 306 302 300 297 292 288 286 285 286 286 287 288 287 286 281 282 283 286 289 295 285 283 276 272 271 273 275
227 229 232 235 236 238 242 247 251 254 263 271 270 269 283 288 289 297 300 302 300 301 302 299 297 294 291 289 286 283 283 282 283 283 284 284 282 279 280 280 282 283 284 285 283 278 276 275 275
215 231 240 236 239 241 248 253 257 264 271 277 280 281 282 289 294 296 297 298 297 298 298 296 293 291 288 286 286 285 282 281 281 280 281 281 280 279 279 278 277 278 280 277 277 278 278 276 275
224 224 229 226 232 242 251 256 264 271 274 280 283 285 285 288 292 295 295 295 296 298 297 294 291 289 286 286 284 282 283 282 280 280 279 279 279 278 276 277 278 277 274 274 274 273 271 273 277
222 221 232 241 239 239 253 260 269 274 280 282 288 292 291 289 292 293 293 294 295 297 294 293 290 289 288 286 283 281 280 279 279 278 277 277 277 276 276 275 275 275 275 273 271 271 273 273 272
223 230 233 237 244 247 258 263 268 281 286 287 290 294 294 294 293 294 294 294 293 293 291 289 288 286 286 284 282 283 282 280 278 276 277 276 275 276 275 275 274 274 274 272 271 270 270 270 271
225 232 236 245 249 257 263 269 276 282 286 290 293 290 289 294 296 297 297 296 294 291 287 284 284 283 282 283 281 281 282 282 280 278 277 276 276 275 274 274 274 274 274 274 273 272 271 271 271
237 240 250 254 257 260 264 271 276 285 288 292 292 293 293 294 296 297 296 295 293 291 289 284 279 280 279 280 281 281 281 282 282 281 280 279 279 280 279 278 278 278 279 279 279 278 276 275 274
232 238 246 251 257 262 270 276 281 289 291 293 296 296 298 298 296 293 290 288 287 286 285 282 279 279 280 280 280 279 279 281 281 280 278 276 276 276 277 278 279 280 280 281 282 283 283 282 280
241 248 254 260 264 270 275 282 286 291 293 295 297 298 297 295 294 293 291 289 288 286 284 283 281 279 278 277 277 278 277 276 277 277 275 273 270 269 271 274 277 278 281 283 284 284 283 281 281
248 255 260 265 272 277 281 288 292 293 295 296 297 296 297 296 294 292 291 291 290 289 287 285 281 277 275 275 274 273 274 274 274 273 272 270 269 270 273 277 280 282 284 285 287 286 285 283 281
258 263 267 274 281 285 290 292 293 294 296 298 297 297 294 293 293 293 293 292 291 288 284 280 276 272 270 268 267 266 267 270 269 269 269 270 271 274 278 282 284 286 287 287 286 285 284 283 281
271 276 279 282 287 290 290 295 297 300 299 297 296 297 297 293 294 296 297 296 293 290 286 281 278 273 267 262 260 260 261 263 264 266 268 271 274 277 280 283 285 286 286 285 284 283 282 281 279
279 283 287 290 291 292 294 295 295 297 299 302 301 300 302 304 302 302 304 304 300 292 284 277 273 269 266 265 256 254 254 257 261 262 265 269 274 278 282 283 284 285 285 284 283 283 284 283 280
275 278 282 287 293 293 298 298 301 305 306 304 309 312 306 305 305 307 311 315 314 307 296 289 282 272 264 261 256 249 247 250 254 259 264 268 274 277 280 283 283 282 285 288 287 286 285 287 287
279 283 287 291 295 296 301 306 309 307 311 312 310 308 303 302 307 315 324 325 332 328 318 304 289 274 249 243 242 244 247 249 253 255 261 267 273 279 280 278 283 286 286 286 288 289 289 286 286
280 283 286 290 297 302 306 307 307 314 312 312 307 310 312 310 310 325 332 336 336 331 331 327 313 283 247 237 236 235 239 247 251 254 259 271 273 271 276 283 283 286 288 291 297 296 293 288 287
276 283 290 296 298 302 301 304 312 319 330 323 321 321 319 314 322 333 341 340 339 336 338 337 328 293 245 225 218 219 220 231 243 261 260 261 267 277 277 278 283 286 292 302 307 310 305 297 298
280 287 292 295 299 295 299 308 321 320 307 320 324 327 332 325 328 336 343 341 341 343 344 343 334 308 245 217 209 212 210 219 232 245 260 269 271 271 273 274 284 286 291 299 300 302 306 311 310
281 282 287 290 285 289 301 314 313 302 308 316 329 343 345 337 325 330 341 348 343 346 352 353 357 344 318 276 257 247 240 236 245 256 262 265 266 268 266 270 278 277 289 291 290 294 297 297 300
275 274 274 269 279 289 297 295 287 288 306 314 319 337 346 338 320 316 331 345 354 353 348 352 355 357 5 355 323 276 255 248 261 266 267 269 266 258 258 270 275 281 284 283 282 285 286 289 296
254 255 263 273 277 282 278 279 287 298 313 315 318 325 335 342 333 319 322 334 349 356 1 0 0 359 354 342 314 281 283 286 283 281 275 272 271 268 269 272 275 279 284 282 280 280 284 287 297
255 260 270 277 280 273 265 276 286 299 312 310 316 320 325 332 342 343 325 322 330 338 348 349 345 342 331 316 301 294 292 290 291 291 288 288 285 278 271 270 273 279 284 286 282 281 285 290 295
264 270 272 275 277 271 271 287 295 299 306 306 312 319 323 324 328 330 338 343 333 327 328 330 331 331 328 323 323 317 306 297 290 286 285 287 290 291 290 280 273 273 274 278 275 276 280 287 291
269 273 275 273 278 283 287 295 294 299 305 311 312 315 316 318 323 325 324 325 331 337 331 327 324 320 318 312 314 306 293 288 287 285 286 286 284 285 284 281 272 267 268 270 273 275 278 283 286
280 281 282 279 281 287 290 303 301 302 304 312 306 309 312 316 318 319 319 315 314 317 321 320 321 315 303 303 297 292 296 291 285 281 280 282 284 287 287 285 283 281 277 274 275 275 277 280 285
Height
5889 5891 5893 5894 5897 5897 5897 5898 5899 5899 5899 5899 5900 5900 5900 5900 5900 5902 5900 5900 5900 5899 5898 5898 5897 5896 5896 5895 5894 5893 5892 5891 5890 5888 5887 5886 5885 5883 5882 5880 5879 5877 5876 5875 5873 5872 5871 5870 5869
5888 5889 5891 5891 5893 5896 5895 5897 5897 5897 5898 5898 5899 5899 5899 5899 5899 5898 5898 5898 5898 5896 5896 5896 5895 5893 5893 5893 5892 5891 5890 5889 5888 5887 5885 5884 5883 5882 5881 5879 5877 5876 5875 5874 5873 5872 5871 5869 5869
5886 5888 5890 5889 5892 5894 5896 5896 5896 5896 5897 5897 5897 5898 5898 5898 5897 5896 5896 5896 5896 5894 5894 5893 5893 5891 5890 5889 5889 5888 5887 5886 5885 5884 5883 5882 5881 5880 5878 5877 5876 5874 5873 5872 5872 5871 5870 5869 5868
5884 5886 5888 5889 5890 5893 5894 5893 5894 5895 5895 5896 5896 5897 5897 5897 5895 5895 5895 5894 5893 5892 5892 5891 5890 5888 5888 5886 5886 5885 5884 5882 5882 5881 5880 5879 5879 5878 5876 5875 5873 5872 5871 5870 5870 5870 5869 5869 5868
5881 5883 5886 5887 5887 5891 5891 5892 5893 5893 5894 5894 5895 5895 5894 5896 5893 5894 5893 5893 5892 5889 5889 5888 5887 5885 5884 5883 5881 5880 5879 5879 5878 5877 5876 5875 5875 5874 5873 5872 5871 5870 5869 5868 5868 5867 5867 5866 5866
5880 5882 5883 5885 5886 5888 5889 5890 5892 5892 5893 5892 5893 5895 5893 5892 5892 5891 5891 5890 5889 5888 5886 5885 5884 5882 5880 5878 5877 5876 5875 5874 5873 5872 5871 5870 5870 5869 5869 5868 5867 5866 5866 5865 5865 5864 5863 5863 5862
5876 5879 5881 5885 5885 5888 5887 5889 5889 5890 5891 5889 5890 5891 5892 5889 5889 5887 5887 5886 5885 5884 5883 5881 5880 5878 5875 5874 5872 5871 5870 5869 5868 5867 5866 5865 5865 5864 5863 5862 5862 5861 5861 5860 5860 5860 5860 5859 5858
5874 5877 5876 5880 5883 5886 5885 5885 5886 5887 5888 5888 5886 5887 5888 5886 5885 5884 5882 5881 5879 5878 5876 5875 5873 5871 5870 5869 5867 5866 5865 5864 5863 5861 5861 5860 5859 5858 5857 5856 5856 5856 5856 5855 5854 5854 5855 5855 5854
5871 5874 5875 5879 5882 5882 5882 5883 5884 5883 5884 5884 5883 5882 5882 5882 5880 5878 5876 5874 5874 5872 5869 5868 5866 5863 5862 5862 5859 5859 5858 5857 5856 5855 5853 5853 5852 5851 5850 5850 5849 5849 5849 5849 5848 5848 5847 5848 5848
5868 5872 5874 5876 5877 5880 5879 5880 5880 5880 5880 5879 5879 5878 5876 5874 5874 5872 5870 5868 5867 5865 5862 5859 5858 5856 5854 5853 5851 5850 5849 5848 5848 5846 5846 5844 5844 5844 5844 5842 5842 5841 5841 5841 5841 5841 5841 5840 5840
5867 5870 5872 5872 5873 5875 5876 5876 5876 5877 5875 5875 5874 5873 5872 5869 5867 5865 5862 5860 5857 5855 5853 5853 5849 5847 5845 5844 5843 5842 5840 5839 5838 5838 5837 5836 5835 5835 5835 5835 5834 5834 5833 5833 5832 5832 5832 5832 5831
5865 5867 5868 5869 5869 5870 5871 5872 5873 5873 5871 5869 5868 5865 5864 5863 5860 5857 5854 5850 5847 5845 5844 5844 5840 5838 5837 5835 5834 5833 5832 5831 5830 5829 5829 5828 5828 5827 5827 5826 5826 5826 5825 5825 5824 5824 5824 5824 5823
5861 5863 5865 5865 5866 5867 5868 5867 5868 5867 5865 5863 5861 5859 5855 5853 5851 5847 5844 5843 5839 5835 5833 5831 5828 5827 5826 5826 5824 5823 5822 5822 5821 5820 5820 5820 5820 5820 5819 5819 5818 5818 5817 5817 5816 5815 5815 5814 5813
5858 5860 5861 5862 5862 5863 5863 5862 5862 5860 5858 5856 5853 5850 5847 5843 5839 5836 5832 5829 5826 5823 5821 5818 5817 5815 5814 5813 5811 5811 5812 5812 5812 5812 5811 5812 5812 5812 5812 5811 5810 5809 5809 5808 5808 5807 5806 5805 5804
5854 5856 5856 5857 5858 5858 5858 5857 5854 5851 5851 5849 5845 5841 5837 5832 5828 5824 5821 5818 5814 5810 5806 5804 5802 5799 5798 5798 5797 5797 5798 5800 5801 5802 5803 5803 5804 5804 5804 5803 5802 5801 5800 5799 5797 5796 5795 5793 5792
5851 5852 5853 5853 5852 5852 5851 5851 5846 5844 5843 5840 5836 5832 5828 5822 5817 5814 5810 5805 5798 5792 5788 5786 5783 5781 5781 5780 5780 5782 5784 5787 5789 5790 5792 5793 5794 5795 5794 5793 5792 5791 5789 5788 5786 5784 5782 5781 5779
5845 5845 5846 5846 5846 5846 5844 5843 5837 5835 5833 5831 5827 5823 5817 5810 5805 5802 5797 5792 5785 5779 5772 5766 5763 5760 5759 5760 5762 5767 5771 5774 5776 5779 5781 5783 5784 5785 5784 5783 5781 5779 5777 5775 5773 5771 5769 5767 5765
5839 5840 5839 5838 5840 5838 5837 5835 5832 5830 5826 5822 5816 5810 5804 5798 5794 5791 5786 5778 5770 5763 5755 5749 5742 5738 5739 5742 5745 5751 5756 5761 5764 5767 5770 5772 5773 5774 5773 5772 5770 5768 5765 5762 5759 5757 5754 5752 5750
5834 5835 5835 5834 5833 5833 5830 5827 5824 5821 5816 5812 5806 5802 5797 5792 5786 5782 5774 5765 5753 5740 5729 5720 5714 5711 5716 5723 5729 5735 5741 5747 5752 5757 5760 5762 5763 5763 5762 5761 5759 5756 5753 5750 5747 5744 5741 5738 5736
5828 5828 5828 5828 5825 5825 5822 5820 5816 5813 5809 5805 5800 5796 5791 5785 5779 5773 5764 5754 5738 5721 5707 5696 5690 5688 5694 5702 5712 5721 5731 5737 5743 5747 5750 5752 5753 5753 5752 5750 5747 5746 5742 5740 5737 5734 5732 5729 5725
5822 5822 5822 5822 5819 5817 5815 5813 5810 5809 5805 5800 5795 5790 5783 5777 5772 5766 5757 5742 5732 5718 5704 5692 5686 5684 5687 5692 5703 5711 5721 5729 5735 5739 5740 5743 5743 5742 5742 5741 5739 5737 5735 5732 5729 5726 5724 5721 5717
5816 5816 5815 5814 5813 5812 5809 5808 5806 5803 5799 5794 5789 5783 5776 5770 5766 5759 5750 5740 5730 5717 5704 5693 5688 5686 5687 5692 5699 5707 5713 5721 5729 5732 5732 5733 5733 5733 5733 5732 5731 5730 5728 5726 5723 5720 5717 5714 5711
5811 5810 5809 5808 5806 5805 5804 5803 5801 5798 5794 5790 5784 5777 5771 5765 5760 5754 5747 5738 5729 5720 5710 5702 5696 5692 5692 5694 5698 5703 5707 5713 5718 5723 5724 5725 5725 5725 5725 5725 5725 5723 5722 5720 5717 5715 5712 5709 5706
5804 5803 5803 5801 5801 5802 5800 5799 5797 5794 5790 5786 5780 5771 5765 5760 5756 5752 5746 5737 5728 5720 5712 5707 5703 5701 5700 5700 5701 5703 5706 5710 5713 5715 5716 5717 5718 5718 5719 5718 5718 5717 5716 5714 5712 5710 5707 5704 5701
5797 5796 5797 5798 5797 5797 5795 5794 5793 5789 5786 5782 5776 5770 5764 5758 5752 5748 5743 5736 5728 5721 5715 5711 5707 5704 5702 5703 5704 5705 5706 5707 5707 5708 5710 5710 5711 5711 5712 5712 5712 5711 5709 5707 5705 5703 5701 5699 5695
5792 5793 5793 5792 5793 5793 5790 5789 5787 5783 5780 5775 5771 5766 5762 5756 5749 5744 5739 5734 5728 5723 5717 5713 5709 5706 5704 5703 5703 5703 5704 5704 5704 5704 5704 5705 5706 5706 5706 5706 5705 5704 5702 5700 5698 5696 5694 5692 5689
5790 5790 5791 5789 5787 5786 5785 5784 5781 5778 5776 5771 5767 5763 5758 5753 5747 5741 5736 5731 5727 5722 5718 5713 5710 5708 5705 5703 5703 5702 5701 5701 5701 5700 5700 5699 5700 5699 5698 5697 5697 5696 5696 5694 5692 5690 5688 5685 5683
5787 5787 5787 5785 5782 5782 5781 5778 5776 5774 5772 5767 5762 5757 5752 5748 5744 5738 5734 5729 5724 5720 5716 5712 5709 5707 5705 5703 5701 5700 5698 5697 5696 5696 5695 5694 5693 5691 5689 5688 5687 5687 5686 5685 5683 5682 5680 5678 5675
5783 5781 5780 5779 5778 5776 5775 5775 5771 5768 5765 5763 5757 5751 5748 5743 5739 5735 5730 5726 5722 5718 5714 5710 5707 5704 5702 5700 5698 5696 5695 5693 5692 5691 5690 5688 5686 5684 5682 5680 5677 5676 5676 5675 5674 5672 5670 5668 5665
5777 5776 5775 5774 5774 5771 5768 5770 5763 5759 5757 5757 5751 5747 5742 5738 5734 5731 5727 5722 5719 5715 5712 5708 5705 5702 5700 5697 5694 5692 5690 5688 5687 5685 5683 5682 5680 5678 5675 5673 5670 5669 5667 5666 5665 5662 5660 5658 5655